IU8UOQ-3 Weather Reports


time (UTC)temp
F
wind
direction
speed
knots
gust
knots
rain 1hr
in
rain 24hr
in
rain mn
in
humidity
%
barometer
mb
20260906100008 88 0.0 0.0 0.00 0.00 0.00 55 1070.4
20260906094003 88 0.0 0.0 0.00 0.00 0.00 54 1070.3
20260906091959 88 0.0 0.0 0.00 0.00 0.00 54 1070.6
20260906085954 88 0.0 0.0 0.00 0.00 0.00 54 1070.4
20260906083949 88 0.0 0.0 0.00 0.00 0.00 54 1070.4
20260906081945 88 0.0 0.0 0.00 0.00 0.00 54 1070.4
20260906075940 88 0.0 0.0 0.00 0.00 0.00 54 1070.4
20260906073936 88 0.0 0.0 0.00 0.00 0.00 55 1070.4
20260906071932 87 0.0 0.0 0.00 0.00 0.00 55 1070.2
20260906065927 87 0.0 0.0 0.00 0.00 0.00 56 1070.1
20260906063922 87 0.0 0.0 0.00 0.00 0.00 55 1069.9
20260906061918 88 0.0 0.0 0.00 0.00 0.00 52 1069.9
20260906055913 88 0.0 0.0 0.00 0.00 0.00 52 1069.8
20260906053908 88 0.0 0.0 0.00 0.00 0.00 52 1069.6
20260906051903 88 0.0 0.0 0.00 0.00 0.00 52 1069.5
20260906045858 88 0.0 0.0 0.00 0.00 0.00 52 1069.4
20260906043853 88 0.0 0.0 0.00 0.00 0.00 52 1069.3
20260906041848 88 0.0 0.0 0.00 0.00 0.00 51 1069.3
20260906035843 88 0.0 0.0 0.00 0.00 0.00 51 1069.1
20260906033838 88 0.0 0.0 0.00 0.00 0.00 51 1069.0
20260906031833 88 0.0 0.0 0.00 0.00 0.00 51 1068.9
20260906025829 88 0.0 0.0 0.00 0.00 0.00 51 1068.8
20260906023824 88 0.0 0.0 0.00 0.00 0.00 51 1069.1
20260906021819 88 0.0 0.0 0.00 0.00 0.00 51 1069.1
20260906015814 88 0.0 0.0 0.00 0.00 0.00 51 1069.1
20260906013809 89 0.0 0.0 0.00 0.00 0.00 50 1069.1
20260906011804 89 0.0 0.0 0.00 0.00 0.00 50 1069.1
20260906005759 89 0.0 0.0 0.00 0.00 0.00 50 1069.1
20260906003755 89 0.0 0.0 0.00 0.00 0.00 50 1069.1
20260906001750 89 0.0 0.0 0.00 0.00 0.00 49 1069.1
20260905235746 89 0.0 0.0 0.00 0.00 0.00 49 1069.3
20260905233741 89 0.0 0.0 0.00 0.00 0.00 49 1069.5
20260905231736 89 0.0 0.0 0.00 0.00 0.00 48 1069.6
20260905211708 90 0.0 0.0 0.00 0.00 0.00 47 1069.8
20260905205702 90 0.0 0.0 0.00 0.00 0.00 47 1069.9
20260905201650 90 0.0 0.0 0.00 0.00 0.00 46 1070.1
20260905195644 90 0.0 0.0 0.00 0.00 0.00 46 1069.9
20260905193638 90 0.0 0.0 0.00 0.00 0.00 46 1069.8
20260905191632 90 0.0 0.0 0.00 0.00 0.00 46 1069.8
20260905185626 90 0.0 0.0 0.00 0.00 0.00 46 1069.7
20260905183620 91 0.0 0.0 0.00 0.00 0.00 46 1069.4
20260905181616 90 0.0 0.0 0.00 0.00 0.00 46 1069.2
20260905175611 90 0.0 0.0 0.00 0.00 0.00 46 1069.1
20260905173606 91 0.0 0.0 0.00 0.00 0.00 45 1069.1
20260905171601 90 0.0 0.0 0.00 0.00 0.00 45 1069.0
20260905165557 90 0.0 0.0 0.00 0.00 0.00 45 1068.8
20260905163551 89 0.0 0.0 0.00 0.00 0.00 46 1068.8
20260905161546 88 0.0 0.0 0.00 0.00 0.00 46 1068.9
20260905155541 89 0.0 0.0 0.00 0.00 0.00 44 1068.7
20260905151247 88 0.0 0.0 0.00 0.00 0.00 42 1068.7
20260905145241 88 0.0 0.0 0.00 0.00 0.00 46 1068.8
20260905143236 88 0.0 0.0 0.00 0.00 0.00 47 1068.8
20260905141232 88 0.0 0.0 0.00 0.00 0.00 48 1069.0
20260905135227 87 0.0 0.0 0.00 0.00 0.00 50 1069.1
20260905133222 85 0.0 0.0 0.00 0.00 0.00 61 1069.1
20260905131217 85 0.0 0.0 0.00 0.00 0.00 59 1069.2
20260905125212 85 0.0 0.0 0.00 0.00 0.00 55 1069.4
20260905123207 86 0.0 0.0 0.00 0.00 0.00 48 1069.5
20260905121202 86 0.0 0.0 0.00 0.00 0.00 44 1069.8
20260905121113 86 0.0 0.0 0.00 0.00 0.00 44 1069.7
20260905120247 86 0.0 0.0 0.00 0.00 0.00 44 1069.7
20260905114242 87 0.0 0.0 0.00 0.00 0.00 46 1069.8
20260905112237 87 0.0 0.0 0.00 0.00 0.00 43 1069.9
20260905110233 87 0.0 0.0 0.00 0.00 0.00 42 1070.0
20260905104228 86 0.0 0.0 0.00 0.00 0.00 44 1069.8
20260905102224 86 0.0 0.0 0.00 0.00 0.00 44 1069.9